Stations météo

réclame
Mon MeteoGroup
Jersey Airport, Grande-Bretagne (3895): Température de l'air & dewpoint: 29.07.2020 17:00:00 - 04.08.2020 17:00:00 (BST)Jersey Airport, Grande-Bretagne (3895): Température de l'air -20cm & Température de l'air -100cm: 29.07.2020 17:00:00 - 04.08.2020 17:00:00 (BST)Jersey Airport, Grande-Bretagne (3895): Vitesse du vent: 29.07.2020 17:00:00 - 04.08.2020 17:00:00 (BST)Jersey Airport, Grande-Bretagne (3895): Direction du vent: 29.07.2020 17:00:00 - 04.08.2020 17:00:00 (BST)Jersey Airport, Grande-Bretagne (3895): reduced air pressure: 29.07.2020 17:00:00 - 04.08.2020 17:00:00 (BST)Jersey Airport, Grande-Bretagne (3895): visibility: 29.07.2020 17:00:00 - 04.08.2020 17:00:00 (BST)Jersey Airport, Grande-Bretagne (3895): Ensoleillement: 29.07.2020 17:00:00 - 04.08.2020 17:00:00 (BST)Jersey Airport, Grande-Bretagne (3895): Quantités de précipitations: 29.07.2020 17:00:00 - 04.08.2020 17:00:00 (BST)
Date & Time tt [°C] td [°C] tt -20cm [°C] tt -100cm [°C] ff [km/h] ff [knt] dd ppp [hPa] vv [km] sd [min] rr [mm]
04.08.2020 17:00:00 19,9 10,7 - - 9 5 WSW 1017,5 10 60 0,0
04.08.2020 16:00:00 19,6 11,1 - - 11 6 W 1018,0 10 60 0,0
04.08.2020 15:00:00 19,3 10,1 - - 11 6 W 1018,5 10 60 0,0
04.08.2020 14:00:00 19,3 10,3 - - 11 6 W 1019,1 50 60 0,0
04.08.2020 13:00:00 17,8 10,9 - - 18 10 WSW 1019,3 10 54 0,0
04.08.2020 12:00:00 17,0 11,4 - - 15 8 WSW 1019,4 45 42 0,0
04.08.2020 11:00:00 17,6 10,9 - - 15 8 WSW 1019,2 10 60 0,0
04.08.2020 10:00:00 17,3 11,2 18,5 17,2 11 6 W 1019,5 10 60 0,0
04.08.2020 09:00:00 16,6 10,9 - - 9 5 W 1019,3 40 60 0,0
04.08.2020 08:00:00 15,4 11,4 - - 5 3 W 1018,8 50 60 0,0
04.08.2020 07:00:00 13,1 11,9 - - 8 4 NW 1019,0 10 42 0,0
04.08.2020 06:00:00 12,0 10,8 - - 8 4 NNW 1018,8 45 0 0,0
04.08.2020 05:00:00 12,0 10,7 - - 5 3 NW 1018,6 10 0 0,0
04.08.2020 04:00:00 12,2 10,8 - - 9 5 NNW 1018,8 50 0 0,0
04.08.2020 03:00:00 12,3 10,4 - - 11 6 N 1018,8 50 0 0,0
04.08.2020 02:00:00 13,0 11,3 - - 11 6 N 1019,1 50 0 0,0
04.08.2020 01:00:00 13,8 11,3 - - 9 5 WNW 1019,2 10 - 0,0
04.08.2020 00:00:00 14,1 11,4 - - 11 6 WNW 1019,3 50 0 0,0
03.08.2020 23:00:00 14,6 12,3 - - 11 6 WNW 1019,2 50 0 0,0
03.08.2020 22:00:00 14,3 12,1 - - 9 5 WNW 1019,2 10 0 0,0
03.08.2020 21:00:00 15,3 12,6 - - 11 6 WNW 1018,7 10 18 0,0
03.08.2020 20:00:00 16,6 12,6 - - 16 9 WNW 1018,5 50 60 0,0
03.08.2020 19:00:00 17,6 12,7 - - 21 11 WNW 1018,3 10 60 0,0
03.08.2020 18:00:00 17,9 12,5 - - 22 12 WNW 1018,4 10 60 0,0
03.08.2020 17:00:00 18,4 12,2 - - 18 10 W 1018,3 10 60 0,0
03.08.2020 16:00:00 18,6 12,5 - - 21 11 W 1018,2 10 60 0,0
03.08.2020 15:00:00 18,5 12,2 - - 24 13 W 1018,4 10 60 0,0
03.08.2020 14:00:00 18,9 12,5 - - 22 12 WNW 1018,6 40 48 0,0
03.08.2020 13:00:00 17,6 11,9 - - 13 7 NW 1018,7 10 24 0,0
03.08.2020 12:00:00 17,6 12,1 - - 16 9 WNW 1018,6 10 24 0,0
03.08.2020 11:00:00 16,4 11,4 - - 18 10 WNW 1018,6 45 18 0,0
03.08.2020 10:00:00 16,9 12,2 18,7 17,0 15 8 WNW 1018,4 10 36 0,0
03.08.2020 09:00:00 16,3 12,2 - - 15 8 NW 1018,3 45 48 0,0
03.08.2020 08:00:00 15,1 12,2 - - 9 5 NW 1017,9 10 42 0,0
03.08.2020 07:00:00 13,4 11,6 - - 13 7 NW 1017,6 45 6 0,0
03.08.2020 06:00:00 12,8 10,6 - - 13 7 NNW 1017,4 50 0 0,0
03.08.2020 05:00:00 13,9 11,4 - - 9 5 NW 1017,3 10 0 0,0
03.08.2020 04:00:00 14,8 12,1 - - 11 6 NW 1017,5 10 0 0,0
03.08.2020 03:00:00 14,9 11,8 - - 11 6 NW 1017,6 10 0 0,0
03.08.2020 02:00:00 15,3 12,0 - - 16 9 WNW 1018,1 10 0 0,0
03.08.2020 01:00:00 15,2 12,2 - - 15 8 WNW 1018,2 10 - 0,0
03.08.2020 00:00:00 15,3 12,3 - - 18 10 WNW 1018,3 40 0 0,0
02.08.2020 23:00:00 15,3 11,5 - - 18 10 WNW 1018,4 10 0 0,0
02.08.2020 22:00:00 15,5 13,5 - - 16 9 W 1018,4 10 0 0,0
02.08.2020 21:00:00 15,8 13,9 - - 18 10 WNW 1018,4 35 0 0,0
02.08.2020 20:00:00 16,0 13,6 - - 28 15 W 1018,5 10 6 0,0
02.08.2020 19:00:00 16,5 13,3 - - 24 13 W 1018,6 40 0 0,0
02.08.2020 18:00:00 17,4 14,1 - - 18 10 WNW 1018,9 10 6 0,0
02.08.2020 17:00:00 18,2 14,2 - - 21 11 W 1019,1 10 30 0,0
02.08.2020 16:00:00 18,7 13,1 - - 21 11 W 1019,3 10 60 0,0
02.08.2020 15:00:00 19,1 13,5 - - 26 14 W 1019,6 10 36 0,0
02.08.2020 14:00:00 18,7 13,2 - - 22 12 W 1019,9 10 54 0,0
02.08.2020 13:00:00 18,8 13,2 - - 24 13 W 1020,0 10 54 0,0
02.08.2020 12:00:00 19,1 14,3 - - 22 12 W 1020,2 10 54 0,0
02.08.2020 11:00:00 17,7 12,9 - - 28 15 W 1020,3 10 42 0,0
02.08.2020 10:00:00 18,1 13,4 18,7 17,0 18 10 W 1020,3 35 30 0,0
02.08.2020 09:00:00 17,2 13,3 - - 18 10 W 1020,3 10 6 0,0
02.08.2020 08:00:00 16,6 13,2 - - 9 5 W 1020,1 45 0 0,0
02.08.2020 07:00:00 16,0 12,6 - - 9 5 WNW 1019,8 10 12 0,0
02.08.2020 06:00:00 15,8 11,6 - - 13 7 WNW 1019,7 10 0 0,0
02.08.2020 05:00:00 15,8 12,0 - - 13 7 WNW 1019,6 10 0 0,0
02.08.2020 04:00:00 15,8 10,6 - - 13 7 WNW 1019,5 10 0 0,0
02.08.2020 03:00:00 15,8 12,2 - - 15 8 WNW 1019,6 10 0 0,0
02.08.2020 02:00:00 15,6 12,7 - - 18 10 WNW 1019,7 45 0 0,0
02.08.2020 01:00:00 15,3 13,0 - - 16 9 WNW 1020,0 10 - 0,0
02.08.2020 00:00:00 15,4 12,6 - - 18 10 WNW 1020,1 40 0 0,0
01.08.2020 23:00:00 15,6 13,2 - - 21 11 WNW 1020,2 10 0 0,0
01.08.2020 22:00:00 15,9 13,8 - - 18 10 WNW 1020,2 10 0 0,0
01.08.2020 21:00:00 16,2 14,2 - - 18 10 W 1019,8 10 30 0,0
01.08.2020 20:00:00 16,9 14,0 - - 21 11 WNW 1019,4 10 24 0,0
01.08.2020 19:00:00 16,8 13,5 - - 22 12 W 1019,3 10 36 0,0
01.08.2020 18:00:00 18,1 14,6 - - 26 14 W 1019,4 10 60 0,0
01.08.2020 17:00:00 18,4 15,0 - - 22 12 WNW 1019,4 10 18 0,0
01.08.2020 16:00:00 19,0 15,5 - - 21 11 WNW 1019,1 10 24 0,0
01.08.2020 15:00:00 19,1 16,1 - - 16 9 W 1019,0 18 18 0,0
01.08.2020 14:00:00 19,0 16,2 - - 13 7 W 1018,7 15 24 0,0
01.08.2020 13:00:00 19,2 15,6 - - 18 10 W 1018,9 10 30 0,0
01.08.2020 12:00:00 18,4 15,9 - - 16 9 W 1018,9 17 24 0,0
01.08.2020 11:00:00 19,3 16,6 - - 21 11 W 1018,3 10 18 0,0
01.08.2020 10:00:00 18,0 15,8 18,9 17,0 22 12 WSW 1018,1 10 18 0,0
01.08.2020 09:00:00 18,2 15,8 - - 13 7 WSW 1017,8 30 30 0,0
01.08.2020 08:00:00 17,7 15,6 - - 13 7 WSW 1017,5 10 42 0,0
01.08.2020 07:00:00 16,5 15,4 - - 11 6 W 1017,7 10 0 0,0
01.08.2020 06:00:00 16,0 14,9 - - 18 10 WNW 1017,5 10 0 0,0
01.08.2020 05:00:00 16,0 15,6 - - 18 10 W 1017,4 10 0 0,0
01.08.2020 04:00:00 16,1 15,7 - - 13 7 W 1017,0 10 0 0,0
01.08.2020 03:00:00 16,7 16,0 - - 13 7 W 1016,7 9 0 0,0
01.08.2020 02:00:00 17,0 16,0 - - 15 8 W 1016,6 14 0 0,0
01.08.2020 01:00:00 17,0 15,8 - - 13 7 W 1016,6 10 - 0,0
01.08.2020 00:00:00 17,1 16,5 - - 16 9 W 1016,3 15 0 0,0
31.07.2020 23:00:00 17,2 16,7 - - 18 10 W 1016,0 10 0 0,0
31.07.2020 22:00:00 17,6 17,0 - - 21 11 W 1015,6 10 0 0,0
31.07.2020 21:00:00 18,2 17,4 - - 18 10 WNW 1014,8 10 0 0,0
31.07.2020 20:00:00 18,3 17,3 - - 16 9 WNW 1014,7 10 0 0,0
31.07.2020 19:00:00 18,9 17,1 - - 18 10 WNW 1014,5 10 48 0,0
31.07.2020 18:00:00 19,0 17,4 - - 18 10 W 1014,3 10 36 0,0
31.07.2020 17:00:00 18,5 16,7 - - 24 13 W 1014,4 7 36 0,0
31.07.2020 16:00:00 18,5 17,0 - - 22 12 W 1014,1 10 6 0,0
31.07.2020 15:00:00 18,1 16,0 - - 22 12 W 1013,5 10 0 0,0
31.07.2020 14:00:00 17,7 16,5 - - 22 12 W 1013,5 19 0 0,0
31.07.2020 13:00:00 17,4 16,4 - - 31 17 W 1012,6 1,5 0 0,0
31.07.2020 12:00:00 18,0 16,4 - - 24 13 W 1012,1 7 30 0,0
31.07.2020 11:00:00 19,8 16,2 - - 22 12 W 1011,1 25 54 0,0
31.07.2020 10:00:00 21,7 15,2 18,7 17,0 28 15 W 1010,7 10 60 0,0
31.07.2020 09:00:00 24,6 13,0 - - 18 10 SSE 1009,7 10 60 0,0
31.07.2020 08:00:00 24,6 12,5 - - 28 15 SSE 1009,7 10 60 0,0
31.07.2020 07:00:00 23,9 12,2 - - 26 14 SSE 1009,3 10 24 0,0
31.07.2020 06:00:00 22,7 11,3 - - 24 13 ESE 1009,2 50 0 0,0
31.07.2020 05:00:00 22,7 11,2 - - 22 12 SE 1009,6 10 0 0,0
31.07.2020 04:00:00 22,8 10,5 - - 22 12 SE 1010,1 10 0 0,0
31.07.2020 03:00:00 23,1 10,2 - - 24 13 ESE 1010,5 10 0 0,0
31.07.2020 02:00:00 22,5 10,8 - - 24 13 ESE 1011,3 10 0 0,0
31.07.2020 01:00:00 21,7 12,0 - - 24 13 ESE 1012,0 10 - 0,0
31.07.2020 00:00:00 20,6 13,1 - - 22 12 E 1012,5 10 0 0,0
30.07.2020 23:00:00 19,8 13,3 - - 22 12 E 1013,1 10 0 0,0
30.07.2020 22:00:00 20,5 13,1 - - 24 13 E 1012,8 10 0 0,0
30.07.2020 21:00:00 21,3 13,1 - - 21 11 ENE 1012,7 10 36 0,0
30.07.2020 20:00:00 23,2 13,7 - - 21 11 ENE 1012,8 10 60 0,0
30.07.2020 19:00:00 26,0 13,3 - - 18 10 ENE 1013,1 10 60 0,0
30.07.2020 18:00:00 27,0 14,2 - - 16 9 ENE 1013,7 10 60 0,0
30.07.2020 17:00:00 28,6 11,0 - - 21 11 SE 1014,1 10 60 0,0
30.07.2020 16:00:00 28,4 10,1 - - 16 9 ESE 1014,8 27 60 0,0
30.07.2020 15:00:00 27,9 9,5 - - 21 11 SE 1015,5 26 60 0,0
30.07.2020 14:00:00 28,1 11,2 - - 21 11 SE 1016,1 10 60 0,0
30.07.2020 13:00:00 26,2 11,0 - - 24 13 SE 1016,5 10 60 0,0
30.07.2020 12:00:00 24,1 10,9 - - 18 10 SE 1017,3 10 60 0,0
30.07.2020 11:00:00 23,0 11,4 - - 16 9 ESE 1017,6 35 60 0,0
30.07.2020 10:00:00 21,8 13,1 18,2 16,9 16 9 ESE 1017,7 10 60 0,0
30.07.2020 09:00:00 19,9 13,8 - - 13 7 ESE 1018,2 10 60 0,0
30.07.2020 08:00:00 16,7 14,2 - - 18 10 ESE 1018,3 10 60 0,0
30.07.2020 07:00:00 14,5 13,8 - - 13 7 ESE 1018,4 30 48 0,0
30.07.2020 06:00:00 12,5 12,0 - - 16 9 ESE 1018,7 10 0 0,0
30.07.2020 05:00:00 12,9 12,2 - - 16 9 E 1018,7 30 0 0,0
30.07.2020 04:00:00 12,4 11,8 - - 16 9 E 1019,1 10 0 0,0
30.07.2020 03:00:00 12,1 11,4 - - 15 8 ESE 1019,3 10 0 0,0
30.07.2020 02:00:00 12,1 11,2 - - 15 8 E 1019,9 10 0 0,0
30.07.2020 01:00:00 12,2 11,1 - - 15 8 ESE 1020,5 10 - 0,0
30.07.2020 00:00:00 13,5 10,9 - - 11 6 E 1020,6 10 0 0,0
29.07.2020 23:00:00 14,4 10,4 - - 13 7 NE 1020,6 50 0 0,0
29.07.2020 22:00:00 14,5 10,3 - - 13 7 NNE 1020,8 10 0 0,0
29.07.2020 21:00:00 15,3 10,5 - - 11 6 NNE 1020,5 10 24 0,0
29.07.2020 20:00:00 16,6 10,7 - - 13 7 NNE 1020,3 50 60 0,0
29.07.2020 19:00:00 17,7 10,8 - - 9 5 N 1020,5 10 60 0,0
29.07.2020 18:00:00 18,3 11,0 - - 11 6 NNE 1020,7 10 60 0,0
29.07.2020 17:00:00 18,9 11,3 - - 11 6 N 1021,1 10 60 0,0

tt = Température de l'air
td = dewpoint
tt -20cm = Température de l'air -20cm
tt -100cm = Température de l'air -100cm
ff = Vitesse du vent
dd = Direction du vent
ppp = reduced air pressure
vv = visibility
sd = Ensoleillement
rr = Quantités de précipitations

stations d'obs. à proximité